This is the latest recevied weather packets stored in our database for station/object KK7ISX. If no packets are shown the sender has not sent any weather packets the latest 10 day(s).
| Time | Temp. | Humidity | Pressure | Rain* | Wind** | Luminosity | Snow |
|---|---|---|---|---|---|---|---|
| 1778089413 | 18.33° C | 32% | 1020.1 hPa | 0 mm | - | 712 W/m² | - |
| 1778089105 | 17.78° C | 33% | 1020.2 hPa | 0 mm | - | 703 W/m² | - |
| 1778088802 | 17.78° C | 32% | 1019.9 hPa | 0 mm | - | 693 W/m² | - |
| 1778088499 | 17.78° C | 33% | 1020.1 hPa | 0 mm | - | 682 W/m² | - |
| 1778088195 | 17.22° C | 32% | 1020 hPa | 0 mm | - | 671 W/m² | - |
| 1778087893 | 17.22° C | 32% | 1020.1 hPa | 0 mm | - | 660 W/m² | - |
| 1778087590 | 16.67° C | 33% | 1020.2 hPa | 0 mm | - | 648 W/m² | - |
| 1778087288 | 17.22° C | 32% | 1020.3 hPa | 0 mm | - | 635 W/m² | - |
| 1778086983 | 16.67° C | 32% | 1020.2 hPa | 0 mm | - | 623 W/m² | - |
| 1778086683 | 17.22° C | 33% | 1020 hPa | 0 mm | - | 609 W/m² | - |
| 1778086379 | 16.67° C | 32% | 1020.1 hPa | 0 mm | - | 596 W/m² | - |
| 1778086076 | 16.67° C | 33% | 1020.3 hPa | 0 mm | - | 581 W/m² | - |
| 1778085773 | 16.11° C | 33% | 1020 hPa | 0 mm | - | 568 W/m² | - |
| 1778085470 | 16.67° C | 34% | 1020.2 hPa | 0 mm | - | 553 W/m² | - |
| 1778085165 | 16.11° C | 33% | 1019.9 hPa | 0 mm | - | 539 W/m² | - |
| 1778084861 | 15.56° C | 33% | 1020.2 hPa | 0 mm | - | 526 W/m² | - |
| 1778084559 | 15.56° C | 34% | 1020.2 hPa | 0 mm | - | 511 W/m² | - |
| 1778084256 | 15.56° C | 34% | 1020.2 hPa | 0 mm | - | 496 W/m² | - |
| 1778083953 | 15° C | 35% | 1020.2 hPa | 0 mm | - | 480 W/m² | - |
| 1778083650 | 15° C | 35% | 1020.2 hPa | 0 mm | - | 463 W/m² | - |
| 1778083347 | 14.44° C | 36% | 1020 hPa | 0 mm | - | 446 W/m² | - |
| 1778083046 | 15° C | 36% | 1020.3 hPa | 0 mm | - | 404 W/m² | - |
| 1778082742 | 14.44° C | 35% | 1020.1 hPa | 0 mm | - | 411 W/m² | - |
| 1778081610 | 13.89° C | 37% | 1020.2 hPa | 0 mm | - | 347 W/m² | - |
| 1778081306 | 13.89° C | 37% | 1020.4 hPa | 0 mm | - | 329 W/m² | - |
* Rain latest hour (hover to see other rain measurements)
** Current wind speed in m/s (hover to see current wind gust speed)